Back to catalog

FENGYUN 1C DEB

AlivePO
NORAD 30647·DEBRIS·🇨🇳 China

Launched May 10, 1999 from Taiyuan Satellite Launch Center

Loading…

Next Passes (next 24 hours)

TLE

FreshSource: Space-Track

Epoch: Sep 14, 2026, 09:21 UTC

1 30647U 99025APE 26257.39026030  .00007549  00000-0  14987-2 0  9996
2 30647  98.9986 217.5153 0030564  56.0515  97.3448 14.62204040 20106

Track FENGYUN 1C DEB in real time with AllMySat

Download on the App Store